Home > Weather > Gloucester > Past weeks

Flag for USA Past Weather in Gloucester, Massachusetts, USA — Yesterday and Last 2 Weeks

Now
74 °F

Clear.


Feels Like: 74 °F
Forecast: 65 / 77 °F
Wind: No wind

Location: Beverly Municipal Airport

Current Time: Aug 26, 2016 at 9:36:00 PM

Latest Report: Aug 26, 2016 at 8:53 PM


Visibility: 10 mi

Pressure: 29.97 "Hg

Humidity: 79%

Dew Point: 67 °F

Location of GloucesterLocation

Past Weather in Gloucester — Graph

°F

Gloucester Temperature Yesterday

Maximum temperature yesterday: 85 °F (at 12:53 PM)
Minimum temperature yesterday: 67 °F (at 3:53 AM)
Average temperature yesterday: 77 °F

High & Low Weather Summary for the Past Weeks

 TemperatureHumidityPressure
High95 °F (Aug 12, 1:53 PM)100% (Aug 13, 1:53 AM)30.25 "Hg (Aug 13, 1:53 AM)
Low53 °F (Aug 23, 5:53 AM)35% (Aug 23, 2:53 PM)29.69 "Hg (Aug 22, 3:53 AM)
Average75 °F74%29.96 "Hg
* Reported Aug 11 7:53 PM — Aug 26 7:53 PM, Gloucester, Weather by CustomWeather, © 2016

Note: Actual official high and low records may vary slightly from our data, if they occured in-between our weather recording intervals... More about our weather records

Advertising

Gloucester Weather History for the Previous 24 Hours

Scroll right to see more
 ConditionsComfort  
Time TempWeatherWind HumidityBarometerVisibility
7:53 PM
Fri, Aug 26
76 °FSunny.No wind77%29.95 "Hg10 mi
6:53 PM83 °FSunny.6 mph59%29.93 "Hg10 mi
5:53 PM87 °FSunny.7 mph55%29.92 "Hg10 mi
4:53 PM88 °FSunny.14 mph54%29.91 "Hg10 mi
3:53 PM88 °FSunny.10 mph59%29.90 "Hg10 mi
2:53 PM86 °FSunny.9 mph65%29.89 "Hg10 mi
1:53 PM87 °FPartly sunny.6 mph65%29.90 "Hg10 mi
12:53 PM86 °FBroken clouds.7 mph67%29.90 "Hg10 mi
11:53 AM82 °FBroken clouds.8 mph77%29.91 "Hg10 mi
10:53 AM79 °FMostly cloudy.7 mph84%29.92 "Hg10 mi
9:53 AM78 °FMostly cloudy.9 mph84%29.93 "Hg10 mi
8:53 AM78 °FPartly sunny.8 mph82%29.92 "Hg8 mi
7:53 AM76 °FScattered clouds.7 mph85%29.93 "Hg10 mi
6:53 AM73 °FClear.6 mph90%29.93 "Hg10 mi
5:53 AM71 °FClear.8 mph93%29.93 "Hg10 mi
4:53 AM72 °FClear.6 mph91%29.92 "Hg10 mi
3:53 AM73 °FClear.7 mph84%29.92 "Hg10 mi
2:53 AM74 °FOvercast.8 mph79%29.92 "Hg10 mi
1:53 AM74 °FOvercast.7 mph79%29.93 "Hg10 mi
12:53 AM74 °FPassing clouds.6 mph76%29.93 "Hg10 mi
11:53 PM
Thu, Aug 25
76 °FOvercast.9 mph72%29.94 "Hg10 mi
10:53 PM76 °FMostly cloudy.10 mph72%29.96 "Hg10 mi
9:53 PM77 °FPassing clouds.10 mph69%29.96 "Hg10 mi
Weather by CustomWeather, © 2016

See weather overviewHow to use our weather pages